Location: Newark
(45.6833°N, 12.6333°E)
Time: 18:19:19
(UTC+00:00)

N. Korean satellite - Pass Details

Date: 19 November 2019
Orbit: 456 x 506 km, 97.2° (Epoch: 05 December)

Event Time Altitude Azimuth Distance (km) Brightness Sun altitude
Rises 16:44:05 0° 188° (S) 2,555 10.6 -12.0°
Reaches altitude 10° 16:46:17 10° 199° (SSW) 1,687 9.8 -12.4°
Maximum altitude 16:49:35 32° 264° (W) 878 8.7 -12.9°
Drops below altitude 10° 16:52:56 10° 329° (NNW) 1,720 9.6 -13.5°
Sets 16:55:12 0° 339° (NNW) 2,615 10.4 -13.9°
